[[{"header":{"parameterUnit":"m.s-1","parameterCategory":1,"la1":30.2991,"la2":30.254,"lo1":-89.0895,"lo2":-89.0444,"dy":0.0017,"dx":0.0017,"nx":28,"ny":28,"refTime":"2023-08-11T21:00:00:Z","depth":0,"parameterNumber":2,"parameterNumberName":"U-component_of_WINDS"},"data":[0,0,0,0,0,0,0,0,0,0,0,0,0,0,0,0,0,0,0,0,0,0,0,0,0,0,0,0,0,0,0,0,0,0,0,0,0,0,0,0,0,0,0,0,0,0,0,0,0,0,0,0,0,0,0,0,0,0,4.565,4.565,0,4.5706,4.5707,4.5708,4.5673,4.5672,4.567,4.5668,4.5728,4.5731,4.5734,0,0,0,0,0,0,0,0,0,0,0,0,0,4.5513,4.5516,4.565,4.565,4.5651,4.5706,4.5707,4.5708,4.5674,4.5672,4.567,4.5668,4.5727,4.5731,4.5734,0,0,0,0,0,0,0,0,0,0,0,0,0,4.5572,4.5517,4.5649,4.5641,4.564,4.5706,4.5707,4.5708,4.5674,4.5672,4.5669,4.5667,4.5726,4.573,4.5735,4.5813,0,0,4.5749,4.5751,0,0,0,0,0,0,0,0,4.5568,4.5577,4.5641,4.5641,4.5641,4.568,4.5681,4.5743,4.5675,4.5661,4.5668,4.5666,4.5714,4.572,4.5736,4.5816,4.5818,4.575,4.5752,4.5754,4.5756,0,0,0,0,0,0,0,4.5564,4.5574,4.5672,4.5642,4.5642,4.5634,4.564,4.5692,4.5701,4.5662,4.566,4.5667,4.5714,4.5731,4.5737,4.5819,4.5749,4.5754,4.5756,4.5758,4.5966,4.5969,0,0,0,0,0,0,4.5561,4.5571,4.567,4.5674,4.5598,4.5639,4.5645,4.567,4.57,4.5702,4.5669,4.5665,4.5725,4.5731,4.5739,4.5832,4.5754,4.5759,4.5761,4.5964,4.5967,4.597,0,0,0,0,0,0,4.5558,4.557,4.5668,4.5622,4.5634,4.5644,4.5672,4.5673,4.569,4.5705,4.5707,4.5685,4.5723,4.5732,4.5795,4.5834,4.5761,4.5765,4.596,4.5965,4.5968,4.602,0,0,0,0,0,0,4.5554,4.5569,4.5598,4.5623,4.5636,4.5723,4.5675,4.5675,4.5698,4.5694,4.5721,4.5723,4.5722,4.5788,4.5799,4.5839,4.5769,4.5957,4.5962,4.5967,4.6015,4.6025,4.6034,0,0,0,0,0,4.5549,4.5611,4.56,4.5612,4.5673,4.5725,4.5733,4.5729,4.5701,4.5731,4.5741,4.5722,4.5828,4.5795,4.5807,4.5849,4.5954,4.5961,4.5967,4.601,4.6023,4.6034,0,0,0,0,0,0,4.5592,4.5614,4.5602,4.5673,4.5697,4.5719,4.5757,4.5743,4.5776,4.577,4.5765,4.5771,4.5837,4.5849,4.5812,4.5926,4.5887,4.5896,4.5916,4.5928,4.5938,4.5933,4.5773,0,0,0,0,0,4.5609,4.5649,4.5666,4.5728,4.574,4.5746,4.5769,4.5764,4.5789,4.5799,4.5814,4.5839,4.5878,4.5903,4.594,4.6016,4.6022,4.6051,4.6061,4.6069,4.6077,4.6118,4.6131,4.599,4.599,4.599,0,0,4.5646,4.5663,4.5689,4.5737,4.5755,4.5797,4.5755,4.5801,4.5832,4.5806,4.5866,4.5878,4.5906,4.5975,4.6007,4.5988,4.6117,4.6077,4.6083,4.6086,4.6126,4.6139,4.6151,4.5994,4.5993,4.5993,0,0,4.5734,4.5751,4.5804,4.5823,4.5851,4.5854,4.5867,4.5891,4.5898,4.5957,4.5939,4.5976,4.6043,4.6064,4.6083,4.618,4.6164,4.6192,4.6243,4.6283,4.6294,4.6304,4.6339,4.6351,4.6199,4.62,4.62,0,4.5776,4.5838,4.5833,4.588,4.5902,4.588,4.5934,4.5953,4.5992,4.6007,4.5985,4.6069,4.6086,4.616,4.6184,4.62,4.6215,4.6189,4.6293,4.6303,4.6312,4.6345,4.6358,4.6203,4.6202,4.6202,4.6202,0,4.5889,4.5932,4.5972,4.6009,4.6036,4.6086,4.6089,4.6116,4.6109,4.6115,4.6177,4.6197,4.6237,4.6254,4.6248,4.6328,4.6315,4.6293,4.6254,4.6329,4.636,4.6372,4.6207,4.6206,4.6205,4.6205,0,0,4.6006,4.604,4.6054,4.6071,4.61,4.6134,4.6183,4.6222,4.6246,4.6274,4.6315,4.6373,4.6352,4.6374,4.637,4.6406,4.6481,4.6379,4.638,4.6398,4.6571,4.6588,4.6602,4.6471,4.6473,4.6475,4.6569,0,4.6096,4.6182,4.6179,4.626,4.63,4.628,4.6323,4.6346,4.6353,4.6389,4.6397,4.6437,4.6407,4.6421,4.6455,4.6465,4.6516,4.6458,4.651,4.6512,4.6504,4.6618,4.6636,4.6723,4.6581,4.6583,4.6584,0,4.6213,4.6244,4.6329,4.6352,4.6369,4.6408,4.6443,4.6477,4.6503,4.6506,4.6531,4.6521,4.6572,4.6531,4.6601,4.6561,4.6583,4.6591,4.6594,4.6599,4.6553,4.6626,4.6751,4.6764,4.6603,4.6602,4.66,0,4.629,4.6353,4.6412,4.6427,4.6455,4.6483,4.6497,4.652,4.6544,4.6575,4.659,4.6627,4.6648,4.6677,4.6678,4.6648,4.6749,4.6708,4.6753,4.6753,4.6775,4.6773,4.6905,4.6789,4.6788,4.6788,4.6788,0,4.6391,4.6444,4.6447,4.6483,4.6541,4.6537,4.6595,4.6606,4.6627,4.6665,4.665,4.6686,4.6685,4.6722,4.6723,4.6781,4.679,4.6794,4.6794,4.6796,4.6795,4.681,4.6804,4.6792,4.6791,4.679,4.6789,0,4.6487,4.6491,4.6554,4.6576,4.6583,4.6625,4.6644,4.6678,4.6684,4.6733,4.6744,4.6754,4.6796,4.68,4.685,4.685,4.692,4.6914,4.6912,4.691,4.6955,4.6951,4.71,4.712,4.6991,4.6992,4.6993,0,4.6551,4.6591,4.6618,4.6642,4.6657,4.6696,4.672,4.6718,4.6744,4.6776,4.6807,4.6848,4.6881,4.695,4.6962,4.7,4.6994,4.7044,4.7,4.7,4.6995,4.6992,4.6996,4.7052,4.7054,4.7055,4.7056,0,4.6665,4.6665,4.67,4.6737,4.6766,4.6794,4.682,4.6841,4.6842,4.6872,4.6915,4.6941,4.6991,4.7032,4.707,4.7084,4.707,4.7069,4.7082,4.7084,4.7081,4.7083,4.6935,4.7066,4.7065,4.7064,4.7064,4.7063,4.6748,4.6782,4.6806,4.6846,4.6865,4.689,4.6924,4.6934,4.697,4.7011,4.7007,4.7055,4.708,4.7129,4.7146,4.7183,4.7167,4.7185,4.7189,4.7194,4.7198,4.7075,4.719,4.719,4.719,4.7189,4.7189,0,4.6861,4.6875,4.6912,4.6949,4.698,4.6964,4.6993,4.702,4.7063,4.7087,4.7119,4.7169,4.7209,4.7224,4.7263,4.729,4.7285,4.73,4.7298,4.7302,4.7211,4.7196,4.7304,4.7304,4.7304,4.7304,4.7304,4.7304,4.6924,4.6981,4.6984,4.7052,4.7066,4.7112,4.713,4.7153,4.7172,4.7229,4.7262,4.7271,4.7291,4.7332,4.7368,4.7371,4.7386,4.7404,4.7405,4.732,4.7308,4.7297,4.7283,4.7408,4.7408,4.7492,4.7493,4.7494]},{"header":{"parameterUnit":"m.s-1","parameterCategory":1,"la1":30.2991,"la2":30.254,"lo1":-89.0895,"lo2":-89.0444,"dy":0.0017,"dx":0.0017,"nx":28,"ny":28,"refTime":"2023-08-11T21:00:00:Z","depth":0,"parameterNumber":3,"parameterNumberName":"V-component_of_WINDS"},"data":[0,0,0,0,0,0,0,0,0,0,0,0,0,0,0,0,0,0,0,0,0,0,0,0,0,0,0,0,0,0,0,0,0,0,0,0,0,0,0,0,0,0,0,0,0,0,0,0,0,0,0,0,0,0,0,0,0,0,2.4558,2.4558,0,2.4537,2.4537,2.4536,2.4524,2.4524,2.4524,2.4524,2.45,2.4499,2.4499,0,0,0,0,0,0,0,0,0,0,0,0,0,2.4585,2.4585,2.4558,2.4558,2.4557,2.4537,2.4537,2.4536,2.4524,2.4524,2.4524,2.4524,2.45,2.4499,2.4499,0,0,0,0,0,0,0,0,0,0,0,0,0,2.4569,2.4584,2.4558,2.4549,2.4548,2.4537,2.4537,2.4536,2.4524,2.4524,2.4524,2.4524,2.45,2.4499,2.4499,2.4494,0,0,2.4496,2.4495,0,0,0,0,0,0,0,0,2.457,2.4568,2.455,2.4549,2.4548,2.4533,2.4537,2.4522,2.4524,2.4533,2.4524,2.4524,2.4511,2.4509,2.4505,2.4493,2.4492,2.4496,2.4495,2.4495,2.4495,0,0,0,0,0,0,0,2.4571,2.4569,2.455,2.455,2.4549,2.4545,2.4543,2.4534,2.4522,2.4532,2.4531,2.4529,2.451,2.4506,2.4504,2.4492,2.4496,2.4495,2.4494,2.4494,2.4475,2.4475,0,0,0,0,0,0,2.4574,2.457,2.455,2.4549,2.4559,2.4545,2.4542,2.4538,2.4523,2.452,2.4529,2.4529,2.4508,2.4506,2.4504,2.4497,2.4495,2.4494,2.4493,2.4475,2.4475,2.4475,0,0,0,0,0,0,2.4575,2.4573,2.4551,2.4559,2.4556,2.4544,2.454,2.4538,2.4533,2.452,2.4518,2.4527,2.4507,2.4505,2.4497,2.4496,2.4494,2.4493,2.4475,2.4475,2.4475,2.4485,0,0,0,0,0,0,2.4576,2.4573,2.4572,2.4559,2.4556,2.4545,2.454,2.4537,2.4532,2.4531,2.4518,2.4516,2.4507,2.4498,2.4496,2.4495,2.4492,2.4475,2.4475,2.4475,2.4485,2.4486,2.4486,0,0,0,0,0,2.4577,2.4575,2.4572,2.457,2.4554,2.4546,2.4543,2.4535,2.4532,2.4531,2.4522,2.4516,2.4497,2.4498,2.4495,2.4494,2.4475,2.4475,2.4475,2.4485,2.4486,2.4486,0,0,0,0,0,0,2.4587,2.4573,2.457,2.4564,2.4556,2.4543,2.4541,2.4536,2.4528,2.4527,2.4516,2.4513,2.4506,2.4499,2.45,2.4489,2.4485,2.4485,2.4493,2.4494,2.4495,2.4497,2.4491,0,0,0,0,0,2.4589,2.4584,2.4572,2.4568,2.4564,2.4554,2.4549,2.4543,2.4534,2.453,2.4521,2.4512,2.4504,2.4499,2.449,2.4484,2.448,2.4482,2.4482,2.4483,2.4483,2.4478,2.4479,2.4475,2.4475,2.4475,0,0,2.4593,2.4584,2.4582,2.457,2.4563,2.4557,2.4551,2.4545,2.454,2.4529,2.4521,2.4514,2.4503,2.4496,2.4492,2.449,2.4483,2.4483,2.4484,2.4483,2.4478,2.4479,2.4479,2.4475,2.4475,2.4475,0,0,2.4596,2.4589,2.4585,2.4579,2.4569,2.4561,2.456,2.4548,2.4544,2.4536,2.4527,2.4521,2.4507,2.4499,2.4494,2.4494,2.4487,2.4491,2.4495,2.449,2.4491,2.4491,2.449,2.449,2.4491,2.4491,2.4491,0,2.4601,2.4593,2.4584,2.4578,2.4573,2.4564,2.4559,2.4553,2.454,2.4537,2.4535,2.4517,2.4509,2.4499,2.4499,2.4495,2.4493,2.4493,2.4492,2.4492,2.4492,2.4491,2.4491,2.4491,2.4491,2.4491,2.4491,0,2.4599,2.4593,2.4591,2.458,2.4575,2.457,2.4559,2.4555,2.4549,2.4542,2.4533,2.4523,2.4512,2.451,2.4504,2.4499,2.4498,2.4494,2.449,2.4493,2.4492,2.4492,2.4492,2.4492,2.4492,2.4492,0,0,2.4609,2.4593,2.4592,2.4587,2.4575,2.457,2.4564,2.4554,2.455,2.4542,2.4536,2.4524,2.452,2.4514,2.4507,2.4503,2.4503,2.4499,2.4499,2.45,2.4497,2.45,2.45,2.4499,2.4499,2.4499,2.4497,0,2.461,2.46,2.4592,2.4585,2.4579,2.457,2.4564,2.4556,2.4549,2.4542,2.4534,2.4526,2.4521,2.4517,2.4513,2.4504,2.4502,2.4504,2.4493,2.4492,2.4496,2.4499,2.4503,2.4502,2.4497,2.4497,2.4497,0,2.461,2.4603,2.4595,2.4583,2.458,2.4576,2.4566,2.456,2.455,2.4545,2.4538,2.4531,2.4523,2.452,2.4509,2.451,2.4505,2.45,2.4499,2.4498,2.4495,2.4497,2.4501,2.4501,2.4497,2.4497,2.4497,0,2.4617,2.4605,2.4599,2.4595,2.4581,2.4578,2.4572,2.4562,2.4557,2.4548,2.4544,2.4534,2.4528,2.452,2.451,2.4509,2.45,2.4496,2.4495,2.4495,2.4493,2.4494,2.4496,2.449,2.449,2.449,2.449,0,2.4619,2.4615,2.4602,2.4598,2.4593,2.4583,2.4577,2.457,2.4561,2.4555,2.4547,2.4541,2.4528,2.4521,2.4512,2.4504,2.4502,2.4497,2.4495,2.4498,2.4498,2.4494,2.4493,2.449,2.449,2.449,2.449,0,2.4626,2.4617,2.461,2.4598,2.4595,2.4591,2.458,2.4576,2.4568,2.4561,2.4558,2.4546,2.4537,2.4526,2.4513,2.4507,2.4499,2.4496,2.4503,2.4502,2.4501,2.4501,2.4501,2.45,2.4495,2.4495,2.4495,0,2.4628,2.4624,2.4612,2.4608,2.4602,2.4596,2.459,2.458,2.4575,2.4563,2.456,2.455,2.4541,2.4526,2.4516,2.4505,2.4502,2.4502,2.45,2.4503,2.4501,2.4502,2.4501,2.4503,2.4503,2.4503,2.4503,0,2.4632,2.4628,2.4621,2.4612,2.4606,2.4599,2.4591,2.4588,2.4576,2.457,2.4561,2.4555,2.4541,2.4531,2.452,2.4512,2.4506,2.4504,2.4503,2.4506,2.451,2.4508,2.4504,2.4504,2.4504,2.4504,2.4504,2.4504,2.4636,2.4632,2.4623,2.4616,2.4609,2.4602,2.4597,2.4589,2.4581,2.4571,2.4565,2.4556,2.4545,2.4528,2.4521,2.4513,2.4511,2.451,2.4509,2.4509,2.451,2.4512,2.4511,2.4511,2.4511,2.4511,2.4511,0,2.4639,2.4633,2.4626,2.4616,2.461,2.4605,2.4596,2.4591,2.4583,2.4574,2.4566,2.4555,2.4545,2.4534,2.4523,2.4519,2.4515,2.4516,2.4516,2.4514,2.4513,2.4514,2.4519,2.4519,2.4519,2.4519,2.4519,2.4519,2.464,2.4634,2.4629,2.4618,2.4612,2.4603,2.4599,2.4592,2.4584,2.4573,2.4565,2.4558,2.4548,2.4536,2.4526,2.4523,2.4519,2.4521,2.4517,2.4515,2.4515,2.4514,2.4516,2.4521,2.4521,2.452,2.452,2.452]}]]